Home > Time Zones > World Clock > Weather > Spain > Palma > Past weeks

Flag for Spain Weather past 2 weeks in Palma, Majorca, Spain

Now
54 °F

Clear.


Feels Like: 50 °F
Forecast: 55 / 72 °F
Wind: 10 mph from East

Location: Palma De Mallorca / Son San Juan

Current Time: Apr 22, 2015 at 2:11:28 AM

Latest Report: Apr 22, 2015 at 1:30 AM


Visibility: 10 mi

Pressure: 30.21 "Hg

Humidity: 82%

Dew point: 48 °F

Location of PalmaLocation

Historic Weather in Palma — Graph

°F

Palma temperature yesterday

Maximum temperature yesterday: 73 °F (at 2:00 PM)
Minimum temperature yesterday: 46 °F (at 3:30 AM)
Average temperature yesterday: 60 °F

Past Weeks' High & Low Weather Summary

 TemperatureHumidityPressure
High77 °F (Apr 14, 2:00 PM)100% (Apr 7, 4:30 AM)30.45 "Hg (Apr 7, 4:30 AM)
Low36 °F (Apr 8, 5:00 AM)25% (Apr 7, 6:30 PM)29.86 "Hg (Apr 19, 6:30 AM)
Average59 °F72%30.19 "Hg
* Reported Midnight between Apr 6 and Apr 7 — Apr 22 12:30 AM, Palma, Weather by CustomWeather, © 2015

Note: Actual official high and low records may vary slightly from our data, if they occured in-between our weather recording intervals... More about our weather records

Advertising

Palma weather history for previous 24 hours

 ConditionsComfort  
Time TempWeatherWind HumidityBarometerVisibility
12:30 AM
Wed, Apr 22
54 °FClear.7 mph77%30.24 "Hg10 mi
12:00 AM57 °FClear.5 mph67%30.24 "Hg10 mi
11:00 PM
Tue, Apr 21
55 °FClear.7 mph67%30.24 "Hg10 mi
10:30 PM55 °FClear.7 mph63%30.24 "Hg10 mi
10:00 PM57 °FClear.7 mph59%30.24 "Hg10 mi
9:30 PM59 °FSunny.6 mph55%30.21 "Hg10 mi
9:00 PM61 °FPassing clouds.6 mph55%30.21 "HgN/A
8:30 PM64 °FPassing clouds.7 mph46%30.21 "HgN/A
8:00 PM66 °FPassing clouds.9 mph40%30.21 "HgN/A
7:30 PM66 °FPassing clouds.8 mph37%30.21 "HgN/A
7:00 PM68 °FPassing clouds.9 mph38%30.21 "HgN/A
6:30 PM70 °FPassing clouds.10 mph33%30.21 "HgN/A
6:00 PM70 °FPassing clouds.10 mph33%30.21 "HgN/A
5:30 PM72 °FPassing clouds.9 mph36%30.21 "HgN/A
5:00 PM73 °FPassing clouds.10 mph33%30.21 "HgN/A
4:30 PM73 °FPassing clouds.8 mph29%30.21 "HgN/A
4:00 PM73 °FPassing clouds.10 mph31%30.21 "HgN/A
3:00 PM72 °FPassing clouds.9 mph53%30.21 "HgN/A
2:30 PM70 °FPassing clouds.9 mph53%30.24 "HgN/A
2:00 PM73 °FPassing clouds.9 mph44%30.24 "HgN/A
1:30 PM72 °FPassing clouds.10 mph47%30.24 "HgN/A
1:00 PM72 °FPassing clouds.12 mph50%30.24 "HgN/A
12:30 PM70 °FPassing clouds.10 mph53%30.24 "HgN/A
12:00 PM70 °FPassing clouds.12 mph50%30.24 "HgN/A
11:30 AM68 °FPassing clouds.13 mph56%30.24 "HgN/A
11:00 AM66 °FPassing clouds.14 mph60%30.21 "HgN/A
10:30 AM66 °FPassing clouds.15 mph56%30.21 "HgN/A
10:00 AM64 °FPassing clouds.14 mph60%30.21 "HgN/A
9:30 AM61 °FSunny.10 mph72%30.21 "Hg10 mi
9:00 AM59 °FSunny.7 mph77%30.21 "Hg10 mi
8:30 AM54 °FSunny.5 mph88%30.21 "Hg10 mi
8:00 AM50 °FClear.3 mph88%30.21 "Hg10 mi
7:30 AM46 °FClear.5 mph93%30.21 "Hg10 mi
7:00 AM46 °FClear.6 mph93%30.21 "Hg10 mi
6:30 AM46 °FClear.6 mph93%30.21 "Hg10 mi
6:00 AM46 °FPassing clouds.3 mph93%30.21 "HgN/A
5:30 AM46 °FPassing clouds.3 mph93%30.21 "HgN/A
5:00 AM46 °FPassing clouds.2 mph93%30.21 "HgN/A
4:30 AM46 °FPassing clouds.2 mph100%30.21 "HgN/A
4:00 AM46 °FPassing clouds.1 mph93%30.21 "HgN/A
3:30 AM46 °FPassing clouds.1 mph100%30.21 "HgN/A
3:00 AM48 °FPassing clouds.1 mph94%30.21 "HgN/A
2:30 AM48 °FPassing clouds.2 mph94%30.21 "HgN/A
2:00 AM48 °FPassing clouds.2 mph94%30.21 "HgN/A
Weather by CustomWeather, © 2015

See weather overviewHow to use our weather pages